Location: Erdweis
(48.5167°N, 15.3500°E)
Time: 15:30:06
(UTC+00:00)

NOSS 2-2 (C) - Pass Details

Date: 21 January 2021
Orbit: 463 x 1745 km, 63.3° (Epoch: 03 March)

Event Time Altitude Azimuth Distance (km) Brightness Sun altitude
Rises 18:59:30 0° 320° (NW) 2,952 7.6 -32.6°
Reaches altitude 10° 19:01:41 10° 330° (NNW) 2,180 6.7 -33.0°
Enters shadow 19:03:05 19° 340° (NNW) 1,751 6.1 -33.2°
